Погода в Ланкаране

Погода в Ланкаране : погода сейчас, прогноз погоды и архив. Всё, что Вы хотите узнать о погоде в Ланкаране!

Поиск расширенной информации на нашем сайте:

Полезная информация: Brady хочет познакомиться - brady tls2200.

Другие новости

Новости СМИ2

Главная страница сайта

Новости сайта

03.07.2017

Напоминаем, что на нашем специализированном сайте Метеоцентр.Азия вы можете получить высокодетализированные автоматические прогнозы погоды по пунктам России, СНГ и мира в авиационном формате (включающие направление и скорость ветра, видимость, явления погоды, количество и форму облачности, нижнюю и верхнюю границу облачности).

Рекомендуем: готовые проекты бань, проекты деревянных бань

Погода в Ланкаране - сегодня

Время (UTC), дата Ветер
(°,м/с) 
Видим.   Явления Облачность Т
(°С)
Тd
(°С)
f(%) Тe
(°С)
Pmin
(гПа)
dP
(гПа)
Po
(мм)
O2
(г/м3)
Тmin Tmax R s Состояние
почвы
09 22.02.18 140 (ЮВ) 4000 м  {дождь}  10/10 600 м 
[Sc]
+8.6 +6.7 88 +10  1017.8  -1.1  764  298           
12 22.02.18 140 (ЮВ) 4000 м    10/10 600 м 
[Sc]
+9.3 +6.1 80 +10  1016.4  -1.4  763  297           
15 22.02.18 160 (Ю) 4000 м    10/10 600 м 
[Sc]
+8.3 +6.4 88 +9  1017  0.6  764  298           
21 22.02.18 180 (Ю) 4000 м    10/10 600 м 
[Sc]
+7.8 +7 95 +9  1017  -0.3  764  298           
00 23.02.18 160 (Ю) 4000 м    10/10 600 м 
[Sc]
+7.8 +6.7 93 +9  1016.9  -0.1  764  298           
03 23.02.18 160 (Ю) 4000 м    10/10 600 м 
[Sc]
+7.7 +7 95 +9  1017.3  0.4  764  298           
06 23.02.18 110 (В) 4000 м  дымка  10/10 300 м 
[St]
+8.3 +7.4 94 +9  1018.2  0.9  765  298  +7.8       
09 23.02.18 110 (В) 4000 м  дымка  10/10 600 м 
[Sc]
+9.7 +6.7 82 +11  1017.6  -0.6  764  296           
12 23.02.18 тихо ()   4000 м    10/10 600 м 
[Sc]
+9.1 +7.1 87 +9  1016.5  -1.1  764  297           
15 23.02.18 140 (ЮВ) 4000 м    10/10 600 м 
[Sc]
+8.4 +6.7 89 +9  1016.2  -0.3  763  297           
21 23.02.18 180 (Ю) 4000 м  дымка  6/6 600 м средняя 
[Sc|Ac lent]
+6.1 +5.9 99 +7  1015.2  -1  763  300           
00 24.02.18 200 (Ю) 4000 м    10/10 600 м 
[Sc]
+7.4 +6.7 95 +8  1014  -1.2  762  298           
03 24.02.18 200 (Ю) 4000 м    10/10 600 м 
[Sc]
+7.6 +6.5 93 +9  1013.6  -0.4  761  297           
06 24.02.18 180 (Ю) 4000 м    10/10 600 м 
[Sc]
+9.1 +6.7 85 +9  1013.7  -0.1  761  296  +7.6       
09 24.02.18 340 (С) 4000 м    10/10 600 м 
[Sc]
+10.9 +6.4 74 +12  1013.2  -0.5  761  294           
12 24.02.18 110 (В) 4000 м    10/10 600 м 
[Sc]
+10.6 +6.1 74 +12  1011.6  -1.6  760  294           
15 24.02.18 140 (ЮВ) 4000 м    10/10 600 м 
[Sc]
+8.9 +6.7 86 +10  1012  0.4  760  296           
21 24.02.18 250 (З) 4000 м    10/10 600 м 
[Sc]
+8 +7.4 96 +9  1011.8  -0.5  760  296           
00 25.02.18 180 (Ю) 4000 м    6/6 600 м 
[Sc]
+5.7 +5.5 99 +7  1010.9  -0.9  759  299           
09 25.02.18 020 (С) 4000 м    6/0 средняя 
[Ac lent]
+12.4 +8 74 +14  1010.9  -1.1  759  291           
12 25.02.18 110 (В) 4000 м    9/9 600 м 
[Sc]
+10.8 +6.5 75 +12  1009.6  -1.3  758  293           
15 25.02.18 160 (Ю) 4000 м    ясно 600 м 
+8.7 +7.4 92 +10  1008.6  -1  758  295           
18 25.02.18 140 (ЮВ) 4000 м    ясно 
+8.2 +7.4 95 +9  1008.4  -0.2  757  295    +12.7       
21 25.02.18 160 (Ю) 4000 м    ясно 
+4.6 +4.1 97 +5  1007.9  -0.5  757  299           
00 26.02.18 200 (Ю) 4000 м    ясно 
+3.1 +2.8 98 +4  1007.3  -0.6  757  301           
Время (UTC), дата Ветер
(°,м/с) 
Видим.   Явления Облачность Т
(°С)
Тd
(°С)
f(%) Тe
(°С)
Pmin
(гПа)
dP
(гПа)
Po
(мм)
O2
(г/м3)
Тmin Tmax R s Состояние
почвы

Для получения пояснительной информации подведите курсор к названию столбца.

ПОГОДА в Ланкаране - архив

Всё, что Вы хотите узнать о погоде в Ланкаране - удобно и подробно!

Выберите нужную дату (начиная с 1 января 2015* года) и нажмите кнопку "Найти".
Будут отображены архивные сводки погоды по пункту Ланкаран, начиная с указанной даты.


Отображать данные в формате CSV (для использования в таблицах Excel)


Внимание! Наш архив погоды предназначен исключительно для личного некоммерческого использования в познавательных целях. Если Вам необходимы официальные справки о состоянии погоды (для производственных, юридических, коммерческих и т.п. целей), обращайтесь в органы Росгидромета.

*Примечание: данная дата относится к архиву по метеостанциям СССР (Россия, СНГ, Балтия).
Архив по метеостанциям Зарубежной Европы и Азии (кроме Китая) хранится 10 дней, по другим регионам земного шара (Китай, Африка, Америка, Австралия, Океания) - 1 день.

Ланкаран - район местоположения метеостанции


Название, широта, долгота, высота метеостанции:
Ланкаран (аэропорт) 38.7°ш. 48.8°д. -12 м над ур. моря [Азербайджан]

Дополнительная информация

В oтличие oт бoльшинства пoгoдных сайтoв мы публикуем пoдрoбную метеoинфoрмацию в детальнoм прoфессиoнальнoм фoрмате.

Характеристики температуры и влажнoсти вoздуха измеряются на высoте 2 м в тени вдали oт зданий и деревьев.
Скoрoсть ветра измеряется на высoте 10 м (на урoвне рoста челoвека скoрoсть ветра ниже в 1.5-2 раза). Если метеoстанция нахoдится в гoрoде или в лесу, тo скoрoсть ветра занижена на 2-4 м/с пo сравнению с oткрытым местoм. Скoрoсть ветра над акватoриями крупных рек и oзёр, а также на вершинах хoлмoв на 2-5 м/с выше, чем в oбычных услoвиях.
Атмoсфернoе давление в разных тoчках местнoсти мoжет значительнo oтличаться oт давления на метеoстанции, в зависимoсти oт услoвий рельефа (при пoдъёме на 10 м давление пoнижается примернo на 1 мм рт.ст.).